[[{"header":{"parameterUnit":"m.s-1","parameterCategory":1,"la1":30.2991,"la2":30.254,"lo1":-89.0895,"lo2":-89.0444,"dy":0.0017,"dx":0.0017,"nx":28,"ny":28,"refTime":"2024-06-16T21:00:00:Z","depth":0,"parameterNumber":2,"parameterNumberName":"U-component_of_WINDS"},"data":[0,0,0,0,0,0,0,0,0,0,0,0,0,0,0,0,0,0,0,0,0,0,0,0,0,0,0,0,0,0,0,0,0,0,0,0,0,0,0,0,0,0,0,0,0,0,0,0,0,0,0,0,0,0,0,0,0,0,-4.9423,-4.9424,0,-4.9544,-4.9545,-4.9546,-4.9519,-4.9517,-4.9515,-4.9513,-4.9631,-4.9636,-4.9641,0,0,0,0,0,0,0,0,0,0,0,0,0,-4.9164,-4.9169,-4.9423,-4.9425,-4.9426,-4.9543,-4.9545,-4.9547,-4.952,-4.9517,-4.9514,-4.9512,-4.9629,-4.9635,-4.9642,0,0,0,0,0,0,0,0,0,0,0,0,0,-4.9279,-4.917,-4.9423,-4.9427,-4.9428,-4.9543,-4.9545,-4.9547,-4.952,-4.9517,-4.9513,-4.951,-4.9627,-4.9635,-4.9642,-4.9759,0,0,-4.9666,-4.967,0,0,0,0,0,0,0,0,-4.9273,-4.9289,-4.9425,-4.9427,-4.9429,-4.9513,-4.9497,-4.9618,-4.9521,-4.9485,-4.9513,-4.9509,-4.9594,-4.9604,-4.9634,-4.9764,-4.9769,-4.9667,-4.9672,-4.9675,-4.9678,0,0,0,0,0,0,0,-4.9265,-4.9284,-4.947,-4.9427,-4.9429,-4.9421,-4.9434,-4.952,-4.9557,-4.9488,-4.9486,-4.9501,-4.9594,-4.9627,-4.9637,-4.9771,-4.9667,-4.9674,-4.9679,-4.9682,-5.0,-5.0004,0,0,0,0,0,0,-4.9256,-4.9277,-4.9467,-4.9474,-4.9341,-4.9428,-4.9442,-4.9489,-4.9556,-4.9563,-4.9504,-4.95,-4.9615,-4.9628,-4.9641,-4.9779,-4.9675,-4.9683,-4.9687,-4.9997,-5.0001,-5.0005,0,0,0,0,0,0,-4.9251,-4.9273,-4.9462,-4.9375,-4.9399,-4.9436,-4.9489,-4.9493,-4.9526,-4.9568,-4.9574,-4.9531,-4.9613,-4.963,-4.973,-4.9783,-4.9686,-4.9693,-4.9992,-4.9998,-5.0003,-5.0058,0,0,0,0,0,0,-4.9243,-4.9271,-4.9317,-4.9377,-4.9404,-4.955,-4.9493,-4.9498,-4.954,-4.9535,-4.9595,-4.9601,-4.9611,-4.9718,-4.9737,-4.9792,-4.97,-4.9987,-4.9995,-5.0001,-5.0051,-5.0065,-5.0076,0,0,0,0,0,-4.9234,-4.9327,-4.932,-4.9343,-4.9462,-4.9553,-4.9568,-4.958,-4.9545,-4.959,-4.9617,-4.9599,-4.9775,-4.9728,-4.975,-4.9808,-4.9984,-4.9993,-5.0001,-5.0046,-5.0062,-5.0076,0,0,0,0,0,0,-4.9271,-4.9335,-4.9327,-4.9443,-4.9493,-4.9549,-4.9606,-4.9597,-4.9657,-4.965,-4.966,-4.9674,-4.9775,-4.9802,-4.9749,-4.9923,-4.9874,-4.9887,-4.9901,-4.9917,-4.9929,-4.9918,-4.9706,0,0,0,0,0,-4.9294,-4.9364,-4.9416,-4.9512,-4.9538,-4.9568,-4.9608,-4.9613,-4.9665,-4.9685,-4.972,-4.9769,-4.9835,-4.9878,-4.9941,-5.0057,-5.0067,-5.0107,-5.0119,-5.0129,-5.0139,-5.0199,-5.0217,-5.0033,-5.0033,-5.0032,0,0,-4.9339,-4.9383,-4.9426,-4.9521,-4.956,-4.9631,-4.9586,-4.9663,-4.9715,-4.9696,-4.9792,-4.9819,-4.9875,-4.9982,-5.0031,-5.0008,-5.0193,-5.014,-5.0148,-5.0152,-5.021,-5.0227,-5.0243,-5.0038,-5.0037,-5.0036,0,0,-4.9457,-4.9499,-4.9583,-4.9624,-4.9684,-4.9704,-4.9724,-4.9782,-4.9799,-4.9896,-4.9883,-4.9944,-5.0059,-5.0098,-5.0133,-5.0267,-5.0251,-5.0287,-5.035,-5.0409,-5.0423,-5.0436,-5.048,-5.0497,-5.0298,-5.0298,-5.0298,0,-4.9505,-4.9613,-4.9627,-4.9705,-4.9746,-4.9735,-4.9818,-4.9857,-4.9935,-4.9962,-4.9936,-5.0078,-5.0115,-5.023,-5.0263,-5.0293,-5.0314,-5.0279,-5.042,-5.0433,-5.0445,-5.0488,-5.0505,-5.0302,-5.0301,-5.0301,-5.0301,0,-4.9667,-4.9742,-4.9803,-4.9879,-4.9928,-5.0008,-5.0032,-5.0079,-5.008,-5.0102,-5.0199,-5.0244,-5.0314,-5.0343,-5.0344,-5.0458,-5.0441,-5.0418,-5.0368,-5.0466,-5.0506,-5.0523,-5.0307,-5.0306,-5.0305,-5.0304,0,0,-4.981,-4.9894,-4.9916,-4.9949,-5.0016,-5.0073,-5.0153,-5.0224,-5.0262,-5.0317,-5.0381,-5.0479,-5.0457,-5.0497,-5.0503,-5.0555,-5.0654,-5.0525,-5.0526,-5.0544,-5.0779,-5.0794,-5.0812,-5.0647,-5.065,-5.0652,-5.0773,0,-4.9932,-5.0073,-5.0088,-5.0213,-5.0281,-5.0272,-5.0341,-5.0388,-5.041,-5.047,-5.0494,-5.0562,-5.053,-5.0553,-5.0605,-5.0632,-5.0701,-5.0624,-5.0704,-5.0706,-5.0686,-5.0834,-5.085,-5.0962,-5.0789,-5.0792,-5.0794,0,-5.0092,-5.0152,-5.0285,-5.034,-5.0369,-5.0431,-5.0496,-5.0555,-5.0607,-5.062,-5.0665,-5.0664,-5.0743,-5.0694,-5.0802,-5.0749,-5.0783,-5.0801,-5.0806,-5.081,-5.0753,-5.0839,-5.0998,-5.1013,-5.0819,-5.0817,-5.0815,0,-5.0179,-5.0293,-5.0386,-5.0416,-5.0484,-5.0527,-5.0557,-5.0607,-5.0648,-5.0706,-5.0732,-5.0797,-5.0832,-5.0882,-5.0898,-5.0861,-5.1005,-5.0957,-5.1015,-5.1014,-5.1042,-5.1039,-5.1205,-5.1071,-5.107,-5.107,-5.107,0,-5.0311,-5.0391,-5.0426,-5.0483,-5.0572,-5.0588,-5.0675,-5.0703,-5.0747,-5.0808,-5.0805,-5.0861,-5.0881,-5.094,-5.0953,-5.1039,-5.1056,-5.1066,-5.1068,-5.1065,-5.1063,-5.1084,-5.1075,-5.1074,-5.1073,-5.1073,-5.1072,0,-5.0421,-5.0448,-5.0549,-5.0606,-5.0622,-5.0685,-5.0732,-5.0786,-5.0809,-5.0885,-5.0904,-5.0938,-5.1008,-5.103,-5.1114,-5.1123,-5.1222,-5.1219,-5.1204,-5.1204,-5.1259,-5.1252,-5.1441,-5.1465,-5.1318,-5.1319,-5.1321,0,-5.0502,-5.0564,-5.0628,-5.0669,-5.0701,-5.0767,-5.081,-5.0828,-5.0871,-5.0936,-5.0982,-5.1051,-5.1107,-5.1219,-5.125,-5.1314,-5.131,-5.1372,-5.1319,-5.1313,-5.1306,-5.1301,-5.1306,-5.138,-5.1382,-5.1383,-5.1384,0,-5.0642,-5.0652,-5.0714,-5.0781,-5.0831,-5.0884,-5.0935,-5.0969,-5.0994,-5.1043,-5.1115,-5.1159,-5.1245,-5.1313,-5.1378,-5.1407,-5.1399,-5.1401,-5.1417,-5.1412,-5.14,-5.1404,-5.1228,-5.1396,-5.1394,-5.1394,-5.1393,-5.1393,-5.0738,-5.0791,-5.0844,-5.0913,-5.0953,-5.1001,-5.1054,-5.1083,-5.1144,-5.1216,-5.1223,-5.13,-5.135,-5.1436,-5.1469,-5.1528,-5.151,-5.1534,-5.1539,-5.1544,-5.1547,-5.1394,-5.154,-5.154,-5.154,-5.1539,-5.1539,0,-5.0874,-5.0908,-5.0971,-5.1043,-5.1096,-5.1087,-5.1143,-5.1187,-5.1255,-5.1303,-5.1359,-5.1441,-5.1506,-5.1544,-5.1609,-5.1649,-5.1647,-5.1665,-5.166,-5.1666,-5.1561,-5.1539,-5.1665,-5.1665,-5.1665,-5.1665,-5.1665,-5.1665,-5.0951,-5.1041,-5.1057,-5.1166,-5.1198,-5.1275,-5.1307,-5.135,-5.1388,-5.1479,-5.1535,-5.1559,-5.1602,-5.167,-5.173,-5.1739,-5.1761,-5.1781,-5.1788,-5.1687,-5.1674,-5.1662,-5.1641,-5.1787,-5.1787,-5.1888,-5.1889,-5.1889]},{"header":{"parameterUnit":"m.s-1","parameterCategory":1,"la1":30.2991,"la2":30.254,"lo1":-89.0895,"lo2":-89.0444,"dy":0.0017,"dx":0.0017,"nx":28,"ny":28,"refTime":"2024-06-16T21:00:00:Z","depth":0,"parameterNumber":3,"parameterNumberName":"V-component_of_WINDS"},"data":[0,0,0,0,0,0,0,0,0,0,0,0,0,0,0,0,0,0,0,0,0,0,0,0,0,0,0,0,0,0,0,0,0,0,0,0,0,0,0,0,0,0,0,0,0,0,0,0,0,0,0,0,0,0,0,0,0,0,2.8466,2.8465,0,2.844,2.844,2.844,2.8369,2.8367,2.8366,2.8364,2.834,2.8341,2.8342,0,0,0,0,0,0,0,0,0,0,0,0,0,2.8456,2.8457,2.8466,2.8465,2.8465,2.844,2.844,2.844,2.8369,2.8367,2.8365,2.8364,2.834,2.8341,2.8342,0,0,0,0,0,0,0,0,0,0,0,0,0,2.8449,2.8457,2.8466,2.8427,2.8423,2.844,2.844,2.844,2.837,2.8367,2.8365,2.8363,2.834,2.8341,2.8342,2.8396,0,0,2.8346,2.8346,0,0,0,0,0,0,0,0,2.8449,2.8449,2.8433,2.843,2.8425,2.8405,2.8428,2.8425,2.837,2.839,2.8364,2.8362,2.8364,2.8363,2.8363,2.8394,2.8393,2.8346,2.8347,2.8347,2.8347,0,0,0,0,0,0,0,2.845,2.845,2.8456,2.8433,2.8428,2.8412,2.8408,2.8427,2.839,2.8388,2.8383,2.8381,2.8361,2.8362,2.8362,2.8393,2.8346,2.8347,2.8348,2.8348,2.8467,2.8469,0,0,0,0,0,0,2.8455,2.8451,2.8456,2.8455,2.8432,2.8414,2.841,2.8414,2.839,2.8384,2.8383,2.8377,2.8361,2.8361,2.8361,2.8421,2.8347,2.8348,2.8349,2.8464,2.8467,2.847,0,0,0,0,0,0,2.8455,2.8457,2.8457,2.8451,2.845,2.8416,2.8422,2.8415,2.8415,2.8386,2.8379,2.839,2.836,2.8359,2.8387,2.8419,2.8349,2.835,2.8461,2.8465,2.8468,2.8542,0,0,0,0,0,0,2.8456,2.8457,2.8476,2.8452,2.8451,2.8483,2.8424,2.8416,2.8418,2.841,2.8391,2.8385,2.8358,2.8386,2.8389,2.8419,2.8351,2.8458,2.8463,2.8467,2.8536,2.8547,2.8557,0,0,0,0,0,2.8455,2.8498,2.8477,2.8479,2.8474,2.8485,2.8484,2.8451,2.842,2.844,2.8421,2.8386,2.8416,2.8389,2.8392,2.8423,2.8456,2.8462,2.8467,2.8531,2.8545,2.8557,0,0,0,0,0,0,2.8527,2.8494,2.8471,2.8507,2.85,2.8473,2.8496,2.8467,2.8468,2.8461,2.8421,2.8417,2.8451,2.844,2.8411,2.8474,2.843,2.8437,2.8479,2.8491,2.8502,2.8502,2.8352,0,0,0,0,0,2.8547,2.8559,2.853,2.8565,2.8562,2.853,2.8534,2.8509,2.85,2.8496,2.8479,2.8472,2.848,2.8486,2.8491,2.8536,2.853,2.8559,2.8569,2.8578,2.8583,2.8605,2.8617,2.8488,2.8488,2.8488,0,0,2.8589,2.8572,2.8582,2.8579,2.857,2.8583,2.8528,2.8544,2.8553,2.8499,2.8523,2.8511,2.8501,2.8537,2.8552,2.8529,2.8618,2.8585,2.8592,2.8592,2.8612,2.8624,2.8635,2.8491,2.8491,2.849,0,0,2.867,2.8659,2.8686,2.8679,2.8666,2.8645,2.8652,2.8631,2.862,2.8644,2.8603,2.8615,2.8629,2.8623,2.8622,2.8703,2.8671,2.8707,2.876,2.8782,2.8792,2.8801,2.8828,2.8838,2.8713,2.8713,2.8713,0,2.8723,2.874,2.8704,2.8723,2.8723,2.8675,2.8702,2.8697,2.8687,2.8688,2.8664,2.868,2.867,2.8704,2.8724,2.8725,2.8731,2.8707,2.8793,2.8802,2.8809,2.8835,2.8845,2.8717,2.8716,2.8716,2.8716,0,2.8805,2.8818,2.8841,2.8832,2.8835,2.8858,2.8827,2.8835,2.8811,2.8793,2.8818,2.8805,2.8806,2.8813,2.879,2.8844,2.883,2.88,2.8755,2.8826,2.8849,2.8859,2.8723,2.8721,2.872,2.8719,0,0,2.8927,2.8899,2.8908,2.8903,2.8887,2.8896,2.8919,2.8919,2.8926,2.8922,2.8939,2.8953,2.8925,2.8924,2.8901,2.892,2.8984,2.8887,2.8887,2.8904,2.9041,2.9061,2.9073,2.8964,2.8966,2.8967,2.9041,0,2.9002,2.9035,2.9005,2.9045,2.9056,2.9012,2.9031,2.9024,2.9008,2.9016,2.9,2.9009,2.8973,2.8972,2.899,2.8972,2.901,2.8967,2.8978,2.8979,2.8979,2.9086,2.9107,2.9177,2.905,2.9052,2.9053,0,2.9093,2.9092,2.9132,2.9113,2.9117,2.9134,2.9133,2.9142,2.9133,2.912,2.912,2.9091,2.9112,2.907,2.9098,2.9069,2.9073,2.9066,2.9068,2.9065,2.9018,2.9083,2.9199,2.9209,2.9067,2.9066,2.9065,0,2.9175,2.9185,2.921,2.9208,2.9187,2.92,2.9192,2.9181,2.9184,2.9184,2.9185,2.9188,2.9189,2.9192,2.9165,2.9138,2.9196,2.9153,2.9186,2.9186,2.9197,2.9196,2.9312,2.9205,2.9204,2.9204,2.9204,0,2.926,2.9286,2.9246,2.9262,2.929,2.9257,2.9286,2.9274,2.9265,2.9277,2.9241,2.9254,2.9219,2.9228,2.9208,2.9234,2.9235,2.9225,2.9219,2.9227,2.9228,2.9226,2.9219,2.9207,2.9206,2.9206,2.9205,0,2.9355,2.933,2.9354,2.9333,2.9328,2.935,2.9332,2.9346,2.9329,2.9345,2.9348,2.9321,2.9331,2.9305,2.9311,2.9297,2.9333,2.9321,2.9336,2.9331,2.9364,2.9361,2.9481,2.9494,2.9381,2.9382,2.9383,0,2.9409,2.9428,2.9409,2.9415,2.9408,2.9418,2.9421,2.939,2.9394,2.9386,2.9401,2.9407,2.941,2.9428,2.9409,2.9414,2.9399,2.9442,2.94,2.9407,2.9397,2.9395,2.9396,2.9449,2.9451,2.9452,2.9453,0,2.9507,2.9494,2.9499,2.95,2.9504,2.9503,2.95,2.9507,2.9474,2.9481,2.949,2.9492,2.9498,2.9505,2.9506,2.9498,2.947,2.9467,2.9474,2.948,2.9487,2.9482,2.9356,2.9463,2.9462,2.9461,2.9461,2.946,2.9582,2.9596,2.9585,2.9592,2.9586,2.9585,2.9596,2.9581,2.9588,2.9589,2.9572,2.9584,2.9576,2.9574,2.957,2.9579,2.956,2.9572,2.9574,2.9576,2.9581,2.9489,2.958,2.958,2.9579,2.9579,2.9579,0,2.9676,2.9667,2.9674,2.967,2.9676,2.965,2.9645,2.9652,2.9663,2.9657,2.9661,2.9672,2.9679,2.9662,2.9666,2.9677,2.9664,2.9679,2.9676,2.9675,2.9599,2.9591,2.9689,2.9689,2.9689,2.9689,2.9689,2.9689,2.9725,2.9748,2.9734,2.9755,2.9746,2.9757,2.9756,2.9755,2.975,2.9763,2.9768,2.9758,2.9748,2.9751,2.9756,2.9751,2.9754,2.9773,2.9763,2.9691,2.9681,2.967,2.9662,2.9774,2.9774,2.9838,2.9838,2.9839]}]]